Location: *
(33.6842°N, 117.7925°W)
Time: 16:50:13
(UTC+00:00)

PSLV R/B - Pass Details

Date: 21 October 2019
Orbit: 503 x 581 km, 97.8° (Epoch: 14 November)

Event Time Altitude Azimuth Distance (km) Brightness Sun altitude
Rises 12:33:03 0° 15° (NNE) 2,608 7.5 -18.9°
Reaches altitude 10° 12:35:09 10° 19° (NNE) 1,717 6.6 -18.5°
Maximum altitude 12:38:48 62° 101° (E) 570 4.1 -17.7°
Drops below altitude 10° 12:42:27 10° 183° (S) 1,712 6.3 -17.0°
Sets 12:44:33 0° 186° (S) 2,599 7.2 -16.5°
